| time (UTC) | temp F | wind direction | speed knots | gust knots | rain 1hr in | rain 24hr in | rain mn in | humidity % | barometer mb |
| 20260902031558 | 55 | 309 | 1.7 | 3.5 | 0.00 | 0.00 | 0.00 | 80 | 1017.4 |
| 20260902031044 | 55 | 309 | 1.7 | 3.5 | 0.00 | 0.00 | 0.00 | 79 | 1017.3 |
| 20260902030547 | 55 | 307 | 1.7 | 3.5 | 0.00 | 0.00 | 0.00 | 79 | 1017.2 |
| 20260902030058 | 55 | 307 | 1.7 | 3.5 | 0.00 | 0.00 | 0.00 | 78 | 1017.2 |
| 20260902025545 | 55 | 307 | 1.7 | 3.5 | 0.00 | 0.00 | 0.00 | 78 | 1017.2 |
| 20260902025045 | 56 | 307 | 1.7 | 3.5 | 0.00 | 0.00 | 0.00 | 78 | 1017.1 |
| 20260902024607 | 56 | 307 | 1.7 | 4.3 | 0.00 | 0.00 | 0.00 | 77 | 1017.1 |
| 20260902024045 | 56 | 307 | 1.7 | 4.3 | 0.00 | 0.00 | 0.00 | 77 | 1017.0 |
| 20260902023544 | 56 | 308 | 1.7 | 4.3 | 0.00 | 0.00 | 0.00 | 76 | 1017.1 |
| 20260902023052 | 57 | 301 | 2.6 | 4.3 | 0.00 | 0.00 | 0.00 | 75 | 1017.0 |
| 20260902022545 | 57 | 297 | 1.7 | 4.3 | 0.00 | 0.00 | 0.00 | 75 | 1016.9 |
| 20260902022045 | 57 | 302 | 1.7 | 3.5 | 0.00 | 0.00 | 0.00 | 75 | 1016.9 |
| 20260902021615 | 58 | 299 | 0.9 | 3.5 | 0.00 | 0.00 | 0.00 | 74 | 1016.9 |
| 20260902021045 | 58 | 299 | 0.9 | 3.5 | 0.00 | 0.00 | 0.00 | 74 | 1016.9 |
| 20260902020548 | 58 | 298 | 0.9 | 2.6 | 0.00 | 0.00 | 0.00 | 73 | 1016.8 |
| 20260902015546 | 58 | 0 | 0.0 | 3.5 | 0.00 | 0.00 | 0.00 | 72 | 1016.8 |
| 20260902015044 | 58 | 298 | 0.9 | 3.5 | 0.00 | 0.00 | 0.00 | 72 | 1016.8 |
| 20260902014551 | 59 | 294 | 0.9 | 3.5 | 0.00 | 0.00 | 0.00 | 71 | 1016.8 |
| 20260902014045 | 59 | 296 | 0.9 | 3.5 | 0.00 | 0.00 | 0.00 | 71 | 1016.7 |
| 20260902013544 | 59 | 295 | 0.9 | 3.5 | 0.00 | 0.00 | 0.00 | 71 | 1016.8 |
| 20260902013104 | 59 | 282 | 0.9 | 4.3 | 0.00 | 0.00 | 0.00 | 70 | 1016.7 |
| 20260902012544 | 59 | 279 | 0.9 | 4.3 | 0.00 | 0.00 | 0.00 | 69 | 1016.8 |
| 20260902012044 | 59 | 294 | 1.7 | 4.3 | 0.00 | 0.00 | 0.00 | 68 | 1016.8 |
| 20260902011559 | 59 | 319 | 1.7 | 4.3 | 0.00 | 0.00 | 0.00 | 68 | 1016.8 |
| 20260902011045 | 59 | 315 | 1.7 | 3.5 | 0.00 | 0.00 | 0.00 | 68 | 1016.8 |
| 20260902010543 | 59 | 0 | 1.7 | 5.2 | 0.00 | 0.00 | 0.00 | 67 | 1016.6 |
| 20260902010059 | 60 | 327 | 1.7 | 7.0 | 0.00 | 0.00 | 0.00 | 67 | 1016.6 |
| 20260902005544 | 60 | 305 | 0.9 | 7.0 | 0.00 | 0.00 | 0.00 | 67 | 1016.5 |
| 20260902005044 | 60 | 304 | 3.5 | 7.0 | 0.00 | 0.00 | 0.00 | 66 | 1016.6 |
| 20260902004558 | 60 | 338 | 3.5 | 7.0 | 0.00 | 0.00 | 0.00 | 65 | 1016.6 |
| 20260902004045 | 61 | 300 | 3.5 | 7.0 | 0.00 | 0.00 | 0.00 | 65 | 1016.6 |
| 20260902003543 | 61 | 306 | 0.9 | 6.1 | 0.00 | 0.00 | 0.00 | 66 | 1016.6 |
| 20260902003055 | 61 | 300 | 0.9 | 3.5 | 0.00 | 0.00 | 0.00 | 66 | 1016.5 |
| 20260902002542 | 61 | 314 | 1.7 | 3.5 | 0.00 | 0.00 | 0.00 | 66 | 1016.6 |
| 20260902002042 | 61 | 290 | 1.7 | 4.3 | 0.00 | 0.00 | 0.00 | 66 | 1016.6 |
| 20260902001558 | 61 | 308 | 0.9 | 6.1 | 0.00 | 0.00 | 0.00 | 65 | 1016.6 |
| 20260902001044 | 61 | 302 | 1.7 | 7.8 | 0.00 | 0.00 | 0.00 | 65 | 1016.5 |
| 20260902000543 | 61 | 298 | 3.5 | 7.8 | 0.00 | 0.00 | 0.00 | 64 | 1016.5 |
| 20260902000058 | 61 | 249 | 1.7 | 7.8 | 0.00 | 0.00 | 0.00 | 65 | 1016.5 |
| 20260901235543 | 62 | 305 | 3.5 | 7.8 | 0.00 | 0.00 | 0.00 | 63 | 1016.5 |
| 20260901235043 | 62 | 284 | 1.7 | 6.1 | 0.00 | 0.00 | 0.00 | 63 | 1016.4 |
| 20260901234558 | 62 | 300 | 1.7 | 7.0 | 0.00 | 0.00 | 0.00 | 63 | 1016.5 |
| 20260901234043 | 63 | 301 | 1.7 | 7.0 | 0.00 | 0.00 | 0.00 | 62 | 1016.6 |
| 20260901233543 | 63 | 301 | 2.6 | 7.0 | 0.00 | 0.00 | 0.00 | 62 | 1016.5 |
| 20260901233052 | 63 | 291 | 2.6 | 7.0 | 0.00 | 0.00 | 0.00 | 60 | 1016.6 |
| 20260901232543 | 64 | 300 | 1.7 | 4.3 | 0.00 | 0.00 | 0.00 | 60 | 1016.5 |
| 20260901232046 | 64 | 290 | 0.9 | 4.3 | 0.00 | 0.00 | 0.00 | 59 | 1016.5 |
| 20260901231559 | 64 | 296 | 1.7 | 7.0 | 0.00 | 0.00 | 0.00 | 60 | 1016.6 |
| 20260901231042 | 64 | 290 | 1.7 | 7.0 | 0.00 | 0.00 | 0.00 | 60 | 1016.6 |
| 20260901230544 | 64 | 295 | 2.6 | 6.1 | 0.00 | 0.00 | 0.00 | 58 | 1016.5 |
| 20260901230058 | 64 | 298 | 2.6 | 7.8 | 0.00 | 0.00 | 0.00 | 59 | 1016.5 |
| 20260901225547 | 65 | 325 | 1.7 | 7.8 | 0.00 | 0.00 | 0.00 | 58 | 1016.6 |
| 20260901225043 | 65 | 294 | 2.6 | 7.8 | 0.00 | 0.00 | 0.00 | 58 | 1016.6 |
| 20260901224559 | 65 | 284 | 1.7 | 4.3 | 0.00 | 0.00 | 0.00 | 58 | 1016.6 |
| 20260901224046 | 65 | 291 | 1.7 | 5.2 | 0.00 | 0.00 | 0.00 | 60 | 1016.6 |
| 20260901223543 | 65 | 325 | 1.7 | 5.2 | 0.00 | 0.00 | 0.00 | 59 | 1016.6 |
| 20260901223100 | 65 | 350 | 1.7 | 7.8 | 0.00 | 0.00 | 0.00 | 59 | 1016.6 |
| 20260901222544 | 65 | 290 | 0.9 | 7.8 | 0.00 | 0.00 | 0.00 | 59 | 1016.8 |
| 20260901222043 | 65 | 286 | 1.7 | 7.8 | 0.00 | 0.00 | 0.00 | 58 | 1016.8 |
| 20260901221549 | 64 | 322 | 1.7 | 6.1 | 0.00 | 0.00 | 0.00 | 59 | 1016.8 |
| 20260901221044 | 64 | 269 | 1.7 | 6.1 | 0.00 | 0.00 | 0.00 | 58 | 1016.9 |
| 20260901220544 | 64 | 283 | 1.7 | 5.2 | 0.00 | 0.00 | 0.00 | 58 | 1016.9 |
| 20260901220104 | 64 | 317 | 1.7 | 6.1 | 0.00 | 0.00 | 0.00 | 58 | 1017.0 |
| 20260901215544 | 64 | 284 | 1.7 | 6.1 | 0.00 | 0.00 | 0.00 | 59 | 1017.0 |
| 20260901215044 | 64 | 297 | 1.7 | 7.8 | 0.00 | 0.00 | 0.00 | 59 | 1017.0 |
| 20260901214554 | 64 | 299 | 1.7 | 7.8 | 0.00 | 0.00 | 0.00 | 58 | 1017.0 |
| 20260901214043 | 65 | 325 | 1.7 | 7.8 | 0.00 | 0.00 | 0.00 | 57 | 1017.1 |
| 20260901213546 | 65 | 287 | 0.9 | 4.3 | 0.00 | 0.00 | 0.00 | 59 | 1017.0 |
| 20260901213052 | 64 | 327 | 0.9 | 6.1 | 0.00 | 0.00 | 0.00 | 60 | 1017.1 |
| 20260901212544 | 64 | 292 | 2.6 | 6.1 | 0.00 | 0.00 | 0.00 | 59 | 1017.1 |
| 20260901212043 | 64 | 297 | 1.7 | 4.3 | 0.00 | 0.00 | 0.00 | 62 | 1017.2 |
| 20260901211559 | 64 | 309 | 0.9 | 4.3 | 0.00 | 0.00 | 0.00 | 62 | 1017.2 |
| 20260901211042 | 64 | 304 | 1.7 | 4.3 | 0.00 | 0.00 | 0.00 | 62 | 1017.2 |
| 20260901210544 | 64 | 294 | 2.6 | 4.3 | 0.00 | 0.00 | 0.00 | 61 | 1017.2 |
| 20260901210057 | 64 | 191 | 1.7 | 4.3 | 0.00 | 0.00 | 0.00 | 62 | 1017.1 |
| 20260901205543 | 64 | 259 | 1.7 | 3.5 | 0.00 | 0.00 | 0.00 | 63 | 1017.1 |
| 20260901205044 | 64 | 102 | 0.9 | 7.0 | 0.00 | 0.00 | 0.00 | 62 | 1017.1 |
| 20260901204556 | 63 | 292 | 0.9 | 7.0 | 0.00 | 0.00 | 0.00 | 64 | 1017.1 |
| 20260901204047 | 63 | 249 | 1.7 | 4.3 | 0.00 | 0.00 | 0.00 | 63 | 1017.1 |
| 20260901203543 | 63 | 234 | 1.7 | 7.8 | 0.00 | 0.00 | 0.00 | 65 | 1017.3 |
| 20260901203052 | 62 | 320 | 1.7 | 7.8 | 0.00 | 0.00 | 0.00 | 64 | 1017.3 |
| 20260901202545 | 62 | 338 | 1.7 | 7.0 | 0.00 | 0.00 | 0.00 | 65 | 1017.2 |
| 20260901202043 | 62 | 257 | 1.7 | 4.3 | 0.00 | 0.00 | 0.00 | 65 | 1017.3 |
| 20260901201600 | 61 | 311 | 1.7 | 4.3 | 0.00 | 0.00 | 0.00 | 67 | 1017.4 |
| 20260901201043 | 61 | 225 | 0.9 | 5.2 | 0.00 | 0.00 | 0.00 | 69 | 1017.6 |
| 20260901200543 | 60 | 280 | 1.7 | 5.2 | 0.00 | 0.00 | 0.00 | 71 | 1017.6 |
| 20260901200108 | 60 | 229 | 1.7 | 3.5 | 0.00 | 0.00 | 0.00 | 71 | 1017.6 |
| 20260901195544 | 59 | 252 | 0.0 | 4.3 | 0.00 | 0.00 | 0.00 | 72 | 1017.6 |
| 20260901195045 | 59 | 322 | 1.7 | 4.3 | 0.00 | 0.00 | 0.00 | 72 | 1017.7 |
| 20260901194603 | 59 | 337 | 0.9 | 7.0 | 0.00 | 0.00 | 0.00 | 71 | 1017.6 |
| 20260901194043 | 59 | 317 | 1.7 | 7.0 | 0.00 | 0.00 | 0.00 | 70 | 1017.6 |
| 20260901193543 | 60 | 307 | 2.6 | 6.1 | 0.00 | 0.00 | 0.00 | 70 | 1017.6 |
| 20260901193101 | 60 | 292 | 0.9 | 4.3 | 0.00 | 0.00 | 0.00 | 68 | 1017.6 |
| 20260901192543 | 60 | 285 | 0.9 | 4.3 | 0.00 | 0.00 | 0.00 | 68 | 1017.6 |
| 20260901192043 | 60 | 269 | 0.9 | 3.5 | 0.00 | 0.00 | 0.00 | 69 | 1017.5 |
| 20260901191606 | 59 | 320 | 0.9 | 3.5 | 0.00 | 0.00 | 0.00 | 69 | 1017.5 |
| 20260901191044 | 59 | 226 | 0.9 | 3.5 | 0.00 | 0.00 | 0.00 | 71 | 1017.6 |
| 20260901190543 | 59 | 327 | 0.9 | 4.3 | 0.00 | 0.00 | 0.00 | 72 | 1017.5 |
| 20260901190104 | 58 | 0 | 0.9 | 4.3 | 0.00 | 0.00 | 0.00 | 73 | 1017.6 |
| 20260901185544 | 58 | 302 | 1.7 | 4.3 | 0.00 | 0.00 | 0.00 | 73 | 1017.6 |
| 20260901185043 | 59 | 301 | 1.7 | 4.3 | 0.00 | 0.00 | 0.00 | 72 | 1017.6 |
| 20260901184601 | 59 | 327 | 1.7 | 3.5 | 0.00 | 0.00 | 0.00 | 72 | 1017.6 |
| 20260901184043 | 59 | 317 | 0.9 | 3.5 | 0.00 | 0.00 | 0.00 | 72 | 1017.6 |
| 20260901183543 | 59 | 318 | 0.0 | 3.5 | 0.00 | 0.00 | 0.00 | 71 | 1017.5 |
| 20260901183101 | 59 | 0 | 0.0 | 2.6 | 0.00 | 0.00 | 0.00 | 70 | 1017.5 |
| 20260901182545 | 60 | 0 | 0.0 | 2.6 | 0.00 | 0.00 | 0.00 | 69 | 1017.5 |
| 20260901182045 | 59 | 0 | 0.0 | 2.6 | 0.00 | 0.00 | 0.00 | 69 | 1017.5 |
| 20260901181602 | 59 | 0 | 0.0 | 0.9 | 0.00 | 0.00 | 0.00 | 70 | 1017.5 |
| 20260901181042 | 58 | 0 | 0.0 | 0.9 | 0.00 | 0.00 | 0.00 | 69 | 1017.5 |
| 20260901180543 | 59 | 0 | 0.0 | 1.7 | 0.00 | 0.00 | 0.00 | 70 | 1017.5 |
| 20260901180124 | 58 | 0 | 0.0 | 1.7 | 0.00 | 0.00 | 0.00 | 70 | 1017.6 |
| 20260901175548 | 58 | 0 | 0.0 | 1.7 | 0.00 | 0.00 | 0.00 | 70 | 1017.4 |
| 20260901175045 | 58 | 0 | 0.0 | 1.7 | 0.00 | 0.00 | 0.00 | 69 | 1017.4 |
| 20260901174603 | 58 | 0 | 0.0 | 0.9 | 0.00 | 0.00 | 0.00 | 72 | 1017.4 |
| 20260901174043 | 57 | 0 | 0.0 | 2.6 | 0.00 | 0.00 | 0.00 | 71 | 1017.3 |
| 20260901173546 | 57 | 0 | 0.0 | 2.6 | 0.00 | 0.00 | 0.00 | 73 | 1017.3 |
| 20260901173109 | 56 | 300 | 0.9 | 2.6 | 0.00 | 0.00 | 0.00 | 74 | 1017.3 |
| 20260901172546 | 56 | 0 | 0.0 | 0.0 | 0.00 | 0.00 | 0.00 | 75 | 1017.2 |
| 20260901172045 | 56 | 0 | 0.0 | 2.6 | 0.00 | 0.00 | 0.00 | 74 | 1017.1 |
| 20260901171612 | 56 | 0 | 0.0 | 2.6 | 0.00 | 0.00 | 0.00 | 74 | 1017.2 |
| 20260901171043 | 56 | 300 | 0.0 | 3.5 | 0.00 | 0.00 | 0.00 | 74 | 1017.0 |
| 20260901170543 | 56 | 301 | 0.9 | 3.5 | 0.00 | 0.00 | 0.00 | 74 | 1017.1 |
| 20260901170100 | 56 | 301 | 0.9 | 2.6 | 0.00 | 0.00 | 0.00 | 74 | 1016.9 |
| 20260901165543 | 55 | 269 | 0.9 | 3.5 | 0.00 | 0.00 | 0.00 | 75 | 1017.0 |
| 20260901165043 | 55 | 0 | 0.9 | 3.5 | 0.00 | 0.00 | 0.00 | 74 | 1016.8 |
| 20260901164600 | 55 | 0 | 0.9 | 2.6 | 0.00 | 0.00 | 0.00 | 76 | 1016.7 |
| 20260901164043 | 55 | 310 | 0.9 | 2.6 | 0.00 | 0.00 | 0.00 | 76 | 1016.7 |
| 20260901163543 | 55 | 310 | 0.0 | 2.6 | 0.00 | 0.00 | 0.00 | 76 | 1016.8 |
| 20260901163053 | 55 | 311 | 0.9 | 4.3 | 0.00 | 0.00 | 0.00 | 77 | 1016.7 |
| 20260901162547 | 55 | 302 | 1.7 | 4.3 | 0.00 | 0.00 | 0.00 | 76 | 1016.8 |
| 20260901162046 | 54 | 0 | 0.0 | 2.6 | 0.00 | 0.00 | 0.00 | 79 | 1016.7 |
| 20260901161551 | 54 | 0 | 0.9 | 2.6 | 0.00 | 0.00 | 0.00 | 78 | 1016.6 |
| 20260901161043 | 54 | 0 | 0.0 | 2.6 | 0.00 | 0.00 | 0.00 | 79 | 1016.6 |
| 20260901160543 | 54 | 315 | 0.9 | 2.6 | 0.00 | 0.00 | 0.00 | 78 | 1016.8 |
| 20260901160104 | 54 | 0 | 0.0 | 2.6 | 0.00 | 0.00 | 0.00 | 80 | 1016.8 |
| 20260901155545 | 54 | 0 | 0.0 | 1.7 | 0.00 | 0.00 | 0.00 | 80 | 1016.9 |
| 20260901155047 | 54 | 219 | 0.0 | 1.7 | 0.00 | 0.00 | 0.00 | 80 | 1016.7 |
| 20260901154558 | 54 | 0 | 0.0 | 0.0 | 0.00 | 0.00 | 0.00 | 80 | 1016.5 |
| 20260901154043 | 53 | 0 | 0.0 | 2.6 | 0.00 | 0.00 | 0.00 | 80 | 1016.5 |
| 20260901153545 | 53 | 0 | 0.0 | 2.6 | 0.00 | 0.00 | 0.00 | 80 | 1016.5 |
| 20260901153054 | 53 | 206 | 0.0 | 0.9 | 0.00 | 0.00 | 0.00 | 81 | 1016.3 |
| 20260901152544 | 53 | 0 | 0.0 | 0.9 | 0.00 | 0.00 | 0.00 | 82 | 1016.3 |
| 20260901152043 | 53 | 0 | 0.0 | 0.9 | 0.00 | 0.00 | 0.00 | 82 | 1016.3 |
| 20260901151609 | 53 | 0 | 0.0 | 0.0 | 0.00 | 0.00 | 0.00 | 81 | 1016.3 |
| 20260901151045 | 53 | 0 | 0.0 | 0.0 | 0.00 | 0.00 | 0.00 | 82 | 1016.3 |
| 20260901150544 | 53 | 0 | 0.0 | 0.0 | 0.00 | 0.00 | 0.00 | 82 | 1016.2 |
| 20260901150056 | 53 | 0 | 0.0 | 0.9 | 0.00 | 0.00 | 0.00 | 82 | 1016.2 |
| 20260901145545 | 53 | 0 | 0.0 | 0.9 | 0.00 | 0.00 | 0.00 | 82 | 1016.3 |
| 20260901145043 | 52 | 0 | 0.0 | 0.0 | 0.00 | 0.00 | 0.00 | 81 | 1016.2 |
| 20260901144559 | 52 | 0 | 0.0 | 0.0 | 0.00 | 0.00 | 0.00 | 82 | 1016.0 |
| 20260901144046 | 52 | 0 | 0.0 | 0.0 | 0.00 | 0.00 | 0.00 | 83 | 1015.9 |
| 20260901143543 | 52 | 0 | 0.0 | 0.0 | 0.00 | 0.00 | 0.00 | 83 | 1016.0 |
| 20260901143108 | 52 | 0 | 0.0 | 1.7 | 0.00 | 0.00 | 0.00 | 83 | 1016.0 |
| 20260901142544 | 52 | 0 | 0.0 | 1.7 | 0.00 | 0.00 | 0.00 | 83 | 1015.8 |
| 20260901142044 | 52 | 0 | 0.0 | 0.9 | 0.00 | 0.00 | 0.00 | 83 | 1015.7 |
| 20260901141559 | 52 | 0 | 0.0 | 0.9 | 0.00 | 0.00 | 0.00 | 83 | 1015.8 |
| 20260901141044 | 52 | 0 | 0.0 | 1.7 | 0.00 | 0.00 | 0.00 | 83 | 1015.7 |
| 20260901140542 | 52 | 0 | 0.0 | 1.7 | 0.00 | 0.00 | 0.00 | 83 | 1015.7 |
| 20260901140106 | 52 | 0 | 0.0 | 0.0 | 0.00 | 0.00 | 0.00 | 83 | 1015.6 |
| 20260901135545 | 52 | 0 | 0.0 | 1.7 | 0.00 | 0.00 | 0.00 | 83 | 1015.6 |
| 20260901135042 | 52 | 0 | 0.0 | 1.7 | 0.00 | 0.00 | 0.00 | 83 | 1015.4 |
| 20260901134555 | 52 | 0 | 0.0 | 1.7 | 0.00 | 0.00 | 0.00 | 82 | 1015.4 |
| 20260901134044 | 52 | 0 | 0.0 | 0.9 | 0.00 | 0.00 | 0.00 | 83 | 1015.5 |
| 20260901133543 | 52 | 0 | 0.0 | 0.9 | 0.00 | 0.00 | 0.00 | 83 | 1015.4 |
| 20260901133054 | 52 | 188 | 0.0 | 0.9 | 0.00 | 0.00 | 0.00 | 83 | 1015.4 |
| 20260901132543 | 52 | 0 | 0.0 | 0.9 | 0.00 | 0.00 | 0.00 | 83 | 1015.4 |
| 20260901132043 | 52 | 0 | 0.0 | 0.9 | 0.00 | 0.00 | 0.00 | 84 | 1015.3 |
| 20260901131603 | 52 | 0 | 0.0 | 0.9 | 0.00 | 0.00 | 0.00 | 84 | 1015.3 |
| 20260901131043 | 52 | 0 | 0.0 | 0.0 | 0.00 | 0.00 | 0.00 | 83 | 1015.3 |
| 20260901130543 | 52 | 0 | 0.0 | 0.0 | 0.00 | 0.00 | 0.00 | 83 | 1015.3 |
| 20260901130057 | 52 | 0 | 0.0 | 0.0 | 0.00 | 0.00 | 0.00 | 84 | 1015.3 |
| 20260901125545 | 52 | 0 | 0.0 | 1.7 | 0.00 | 0.00 | 0.00 | 84 | 1015.3 |
| 20260901125042 | 52 | 0 | 0.0 | 1.7 | 0.00 | 0.00 | 0.00 | 84 | 1015.3 |
| 20260901124554 | 52 | 290 | 0.0 | 1.7 | 0.00 | 0.00 | 0.00 | 83 | 1015.1 |
| 20260901124047 | 52 | 0 | 0.0 | 0.0 | 0.00 | 0.00 | 0.00 | 84 | 1015.0 |
| 20260901123544 | 52 | 0 | 0.0 | 0.0 | 0.00 | 0.00 | 0.00 | 85 | 1015.0 |
| 20260901123109 | 52 | 0 | 0.0 | 0.0 | 0.00 | 0.00 | 0.00 | 85 | 1015.0 |
| 20260901122544 | 52 | 0 | 0.0 | 0.0 | 0.00 | 0.00 | 0.00 | 86 | 1015.0 |
| 20260901122044 | 52 | 0 | 0.0 | 0.9 | 0.00 | 0.00 | 0.00 | 86 | 1015.0 |
| 20260901121608 | 52 | 0 | 0.0 | 1.7 | 0.00 | 0.00 | 0.00 | 86 | 1015.0 |
| 20260901121047 | 52 | 0 | 0.0 | 1.7 | 0.00 | 0.00 | 0.00 | 86 | 1015.0 |
| 20260901120546 | 52 | 290 | 0.0 | 2.6 | 0.00 | 0.00 | 0.00 | 85 | 1015.1 |
| 20260901120057 | 52 | 290 | 0.9 | 2.6 | 0.00 | 0.00 | 0.00 | 86 | 1015.0 |
| 20260901115544 | 52 | 0 | 0.0 | 1.7 | 0.00 | 0.00 | 0.00 | 85 | 1015.0 |
| 20260901115045 | 52 | 323 | 0.0 | 2.6 | 0.00 | 0.00 | 0.00 | 86 | 1015.0 |
| 20260901114553 | 52 | 323 | 0.0 | 2.6 | 0.00 | 0.00 | 0.00 | 86 | 1015.1 |
| 20260901114044 | 52 | 0 | 0.0 | 3.5 | 0.00 | 0.00 | 0.00 | 87 | 1014.9 |
| 20260901113545 | 52 | 0 | 0.9 | 3.5 | 0.00 | 0.00 | 0.00 | 87 | 1015.1 |
| 20260901113106 | 52 | 323 | 0.9 | 3.5 | 0.00 | 0.00 | 0.00 | 87 | 1015.1 |
| 20260901112545 | 52 | 323 | 0.9 | 2.6 | 0.00 | 0.00 | 0.00 | 87 | 1015.1 |
| 20260901112044 | 52 | 323 | 0.9 | 2.6 | 0.00 | 0.00 | 0.00 | 87 | 1015.1 |
| 20260901111559 | 52 | 323 | 0.0 | 1.7 | 0.00 | 0.00 | 0.00 | 88 | 1015.1 |
| 20260901111047 | 52 | 323 | 0.0 | 1.7 | 0.00 | 0.00 | 0.00 | 87 | 1015.2 |
| 20260901110545 | 52 | 323 | 0.0 | 1.7 | 0.00 | 0.00 | 0.00 | 87 | 1015.1 |
| 20260901110103 | 52 | 323 | 0.9 | 1.7 | 0.00 | 0.00 | 0.00 | 87 | 1015.2 |
| 20260901105545 | 52 | 323 | 0.9 | 2.6 | 0.00 | 0.00 | 0.00 | 87 | 1015.2 |
| 20260901105045 | 52 | 0 | 0.0 | 2.6 | 0.00 | 0.00 | 0.00 | 87 | 1015.1 |
| 20260901104559 | 52 | 0 | 0.0 | 2.6 | 0.00 | 0.00 | 0.00 | 87 | 1015.1 |
| 20260901104044 | 52 | 0 | 0.9 | 2.6 | 0.00 | 0.00 | 0.00 | 87 | 1015.1 |
| 20260901103546 | 52 | 0 | 0.0 | 1.7 | 0.00 | 0.00 | 0.00 | 87 | 1015.0 |
| 20260901103106 | 52 | 0 | 0.0 | 1.7 | 0.00 | 0.00 | 0.00 | 87 | 1014.8 |
| 20260901102544 | 52 | 0 | 0.0 | 1.7 | 0.00 | 0.00 | 0.00 | 87 | 1015.0 |
| 20260901102046 | 52 | 0 | 0.0 | 1.7 | 0.00 | 0.00 | 0.00 | 88 | 1014.9 |
| 20260901101554 | 52 | 323 | 0.0 | 0.9 | 0.00 | 0.00 | 0.00 | 88 | 1014.9 |
| 20260901101043 | 52 | 0 | 0.0 | 1.7 | 0.00 | 0.00 | 0.00 | 88 | 1014.8 |
| 20260901100546 | 52 | 0 | 0.0 | 1.7 | 0.00 | 0.00 | 0.00 | 88 | 1014.8 |
| 20260901100205 | 52 | 323 | 0.9 | 1.7 | 0.00 | 0.00 | 0.00 | 88 | 1014.7 |
| 20260901095545 | 52 | 0 | 0.0 | 1.7 | 0.00 | 0.00 | 0.00 | 88 | 1014.7 |
| 20260901095043 | 52 | 323 | 0.0 | 4.3 | 0.00 | 0.00 | 0.00 | 88 | 1014.7 |
| 20260901094600 | 52 | 0 | 0.9 | 4.3 | 0.00 | 0.00 | 0.00 | 87 | 1014.7 |
| 20260901094042 | 52 | 304 | 2.6 | 4.3 | 0.00 | 0.00 | 0.00 | 87 | 1014.6 |
| 20260901093543 | 52 | 317 | 1.7 | 3.5 | 0.00 | 0.00 | 0.00 | 87 | 1014.6 |
| 20260901093111 | 52 | 308 | 0.9 | 2.6 | 0.00 | 0.00 | 0.00 | 87 | 1014.6 |
| 20260901092543 | 52 | 308 | 0.0 | 4.3 | 0.00 | 0.00 | 0.00 | 87 | 1014.6 |
| 20260901092043 | 52 | 308 | 0.9 | 4.3 | 0.00 | 0.00 | 0.00 | 87 | 1014.5 |
| 20260901091609 | 52 | 304 | 2.6 | 4.3 | 0.00 | 0.00 | 0.00 | 86 | 1014.5 |
| 20260901091042 | 52 | 315 | 0.9 | 3.5 | 0.00 | 0.00 | 0.00 | 87 | 1014.5 |
| 20260901090543 | 52 | 315 | 0.9 | 2.6 | 0.00 | 0.00 | 0.00 | 86 | 1014.7 |
| 20260901090056 | 52 | 315 | 0.0 | 3.5 | 0.00 | 0.00 | 0.00 | 87 | 1014.7 |
| 20260901085542 | 52 | 315 | 0.0 | 3.5 | 0.00 | 0.00 | 0.00 | 86 | 1014.7 |
| 20260901085043 | 52 | 315 | 1.7 | 3.5 | 0.00 | 0.00 | 0.00 | 86 | 1014.6 |
| 20260901084600 | 52 | 333 | 0.9 | 2.6 | 0.00 | 0.00 | 0.00 | 86 | 1014.7 |
| 20260901084040 | 52 | 333 | 0.9 | 2.6 | 0.00 | 0.00 | 0.00 | 86 | 1014.7 |
| 20260901083543 | 52 | 333 | 1.7 | 2.6 | 0.00 | 0.00 | 0.00 | 86 | 1014.5 |
| 20260901083102 | 52 | 338 | 0.0 | 2.6 | 0.00 | 0.00 | 0.00 | 87 | 1014.5 |
| 20260901082544 | 52 | 338 | 0.0 | 3.5 | 0.00 | 0.00 | 0.00 | 87 | 1014.5 |
| 20260901082048 | 52 | 0 | 0.9 | 3.5 | 0.00 | 0.00 | 0.00 | 87 | 1014.5 |
| 20260901081559 | 52 | 342 | 0.9 | 2.6 | 0.00 | 0.00 | 0.00 | 87 | 1014.5 |
| 20260901081042 | 52 | 342 | 0.0 | 2.6 | 0.00 | 0.00 | 0.00 | 87 | 1014.6 |
| 20260901080542 | 52 | 342 | 0.0 | 4.3 | 0.00 | 0.00 | 0.00 | 87 | 1014.6 |
| 20260901080059 | 52 | 322 | 0.9 | 4.3 | 0.00 | 0.00 | 0.00 | 86 | 1014.7 |
| 20260901075544 | 52 | 320 | 0.9 | 3.5 | 0.00 | 0.00 | 0.00 | 86 | 1014.6 |
| 20260901075043 | 52 | 320 | 0.9 | 4.3 | 0.00 | 0.00 | 0.00 | 86 | 1014.6 |
| 20260901074603 | 52 | 320 | 2.6 | 4.3 | 0.00 | 0.00 | 0.00 | 87 | 1014.5 |
| 20260901074044 | 52 | 316 | 0.9 | 3.5 | 0.00 | 0.00 | 0.00 | 87 | 1014.5 |
| 20260901073543 | 52 | 0 | 0.0 | 3.5 | 0.00 | 0.00 | 0.00 | 87 | 1014.6 |
| 20260901073101 | 52 | 316 | 1.7 | 3.5 | 0.00 | 0.00 | 0.00 | 87 | 1014.7 |
| 20260901072543 | 52 | 313 | 1.7 | 4.3 | 0.00 | 0.00 | 0.00 | 87 | 1014.9 |
| 20260901072045 | 52 | 317 | 0.9 | 5.2 | 0.00 | 0.00 | 0.00 | 87 | 1014.9 |
| 20260901071557 | 52 | 323 | 1.7 | 5.2 | 0.00 | 0.00 | 0.00 | 87 | 1014.9 |
| 20260901071042 | 52 | 311 | 0.9 | 5.2 | 0.00 | 0.00 | 0.00 | 88 | 1014.8 |
| 20260901070544 | 52 | 312 | 2.6 | 5.2 | 0.00 | 0.00 | 0.00 | 87 | 1014.7 |
| 20260901070103 | 52 | 0 | 0.0 | 1.7 | 0.00 | 0.00 | 0.00 | 88 | 1014.8 |
| 20260901065545 | 52 | 0 | 0.0 | 4.3 | 0.00 | 0.00 | 0.00 | 88 | 1014.7 |
| 20260901065043 | 52 | 0 | 1.7 | 4.3 | 0.00 | 0.00 | 0.00 | 88 | 1014.7 |
| 20260901064602 | 52 | 310 | 1.7 | 4.3 | 0.00 | 0.00 | 0.00 | 88 | 1014.8 |
| 20260901064049 | 52 | 309 | 1.7 | 4.3 | 0.00 | 0.00 | 0.00 | 88 | 1014.8 |
| 20260901063542 | 52 | 309 | 0.9 | 4.3 | 0.00 | 0.00 | 0.00 | 88 | 1014.9 |
| 20260901063058 | 52 | 294 | 1.7 | 4.3 | 0.00 | 0.00 | 0.00 | 88 | 1014.9 |
| 20260901062546 | 52 | 323 | 0.0 | 3.5 | 0.00 | 0.00 | 0.00 | 89 | 1014.9 |
| 20260901062043 | 52 | 312 | 0.9 | 5.2 | 0.00 | 0.00 | 0.00 | 89 | 1014.9 |
| 20260901061605 | 52 | 312 | 0.9 | 5.2 | 0.00 | 0.00 | 0.00 | 88 | 1014.8 |
| 20260901061044 | 52 | 309 | 0.9 | 6.1 | 0.00 | 0.00 | 0.00 | 89 | 1014.8 |
| 20260901060543 | 52 | 319 | 0.9 | 6.1 | 0.00 | 0.00 | 0.00 | 89 | 1014.9 |
| 20260901060055 | 52 | 327 | 1.7 | 5.2 | 0.00 | 0.00 | 0.00 | 89 | 1015.0 |
| 20260901055543 | 52 | 298 | 2.6 | 6.1 | 0.00 | 0.00 | 0.00 | 89 | 1015.0 |
| 20260901055044 | 52 | 317 | 2.6 | 6.1 | 0.00 | 0.00 | 0.00 | 89 | 1015.1 |
| 20260901054554 | 52 | 321 | 2.6 | 6.1 | 0.00 | 0.00 | 0.00 | 89 | 1015.0 |
| 20260901054045 | 52 | 321 | 3.5 | 6.1 | 0.00 | 0.00 | 0.00 | 89 | 1015.1 |
| 20260901053546 | 52 | 304 | 1.7 | 7.0 | 0.00 | 0.00 | 0.00 | 89 | 1015.1 |
| 20260901053107 | 52 | 321 | 3.5 | 7.0 | 0.00 | 0.00 | 0.00 | 89 | 1015.1 |
| 20260901052543 | 52 | 304 | 3.5 | 7.0 | 0.00 | 0.00 | 0.00 | 89 | 1015.1 |
| 20260901052045 | 52 | 309 | 2.6 | 6.1 | 0.00 | 0.00 | 0.00 | 89 | 1015.1 |
| 20260901051607 | 52 | 308 | 2.6 | 6.1 | 0.00 | 0.00 | 0.00 | 89 | 1015.1 |
| 20260901051047 | 52 | 326 | 2.6 | 6.1 | 0.00 | 0.00 | 0.00 | 89 | 1015.0 |
| 20260901050545 | 52 | 313 | 1.7 | 5.2 | 0.00 | 0.00 | 0.00 | 89 | 1015.0 |
| 20260901050054 | 52 | 299 | 1.7 | 4.3 | 0.00 | 0.00 | 0.00 | 89 | 1014.9 |
| 20260901045544 | 52 | 314 | 1.7 | 4.3 | 0.00 | 0.00 | 0.00 | 89 | 1014.8 |
| 20260901045043 | 52 | 319 | 2.6 | 6.1 | 0.00 | 0.00 | 0.00 | 89 | 1014.8 |
| 20260901044618 | 52 | 308 | 2.6 | 6.1 | 0.00 | 0.00 | 0.00 | 89 | 1014.7 |
| 20260901044045 | 52 | 317 | 2.6 | 4.3 | 0.00 | 0.00 | 0.00 | 89 | 1014.7 |
| 20260901043544 | 52 | 315 | 1.7 | 5.2 | 0.00 | 0.00 | 0.00 | 89 | 1014.7 |
| 20260901043059 | 52 | 315 | 2.6 | 6.1 | 0.00 | 0.00 | 0.00 | 89 | 1014.7 |
| 20260901042543 | 52 | 320 | 2.6 | 6.1 | 0.00 | 0.00 | 0.00 | 89 | 1014.6 |
| 20260901042043 | 52 | 307 | 1.7 | 7.8 | 0.00 | 0.00 | 0.00 | 89 | 1014.7 |
| 20260901041559 | 52 | 323 | 3.5 | 7.8 | 0.00 | 0.00 | 0.00 | 88 | 1014.6 |
| 20260901041047 | 52 | 309 | 3.5 | 7.8 | 0.00 | 0.00 | 0.00 | 89 | 1014.5 |
| 20260901040543 | 52 | 303 | 3.5 | 7.0 | 0.00 | 0.00 | 0.00 | 89 | 1014.5 |
| 20260901040055 | 52 | 319 | 3.5 | 7.0 | 0.00 | 0.00 | 0.00 | 90 | 1014.5 |
| 20260901035546 | 52 | 319 | 2.6 | 7.8 | 0.00 | 0.00 | 0.00 | 90 | 1014.5 |
| 20260901035048 | 52 | 313 | 2.6 | 7.8 | 0.00 | 0.00 | 0.00 | 90 | 1014.5 |
| 20260901034559 | 52 | 321 | 2.6 | 6.1 | 0.00 | 0.00 | 0.00 | 90 | 1014.5 |
| 20260901034043 | 52 | 312 | 2.6 | 4.3 | 0.00 | 0.00 | 0.00 | 90 | 1014.5 |
| 20260901033544 | 52 | 319 | 0.9 | 4.3 | 0.00 | 0.00 | 0.00 | 90 | 1014.5 |
| 20260901033053 | 52 | 311 | 2.6 | 5.2 | 0.00 | 0.00 | 0.00 | 90 | 1014.4 |
| 20260901032544 | 52 | 318 | 2.6 | 5.2 | 0.00 | 0.00 | 0.00 | 90 | 1014.3 |
| 20260901032045 | 53 | 306 | 1.7 | 7.0 | 0.00 | 0.00 | 0.00 | 89 | 1014.3 |